JAL698 RJFM-RJTT

Flight info

Callsign JAL698
Flight time N/A
Altitude 33000
Route MADOG M750 BILLY Y21 AKSEL
Aircraft B738/M-SDE2E3FGHIRWXY/LB1

Departure

Time 2026-05-01 12:45
Airport Miyazaki Airport (RJFM)

Arrival

Time N/A
Airport Tokyo Haneda International Airport (RJTT)
Time Latitude Longitude Altitude Speed Heading
2026-05-01 12:18 31.87350 131.44075 30 ft 0 kts 175°
2026-05-01 12:30 31.87358 131.44075 30 ft 2 kts 175°
2026-05-01 12:31 31.87373 131.44073 30 ft 2 kts 175°
2026-05-01 12:31 31.87388 131.44072 30 ft 2 kts 175°
2026-05-01 12:31 31.87403 131.44070 30 ft 2 kts 175°
2026-05-01 12:31 31.87418 131.44069 30 ft 2 kts 175°
2026-05-01 12:32 31.87433 131.44067 30 ft 2 kts 175°
2026-05-01 12:32 31.87458 131.44066 30 ft 1 kts 175°
2026-05-01 12:32 31.87472 131.44060 30 ft 2 kts 142°
2026-05-01 12:33 31.87482 131.44047 30 ft 2 kts 114°
2026-05-01 12:33 31.87485 131.44032 30 ft 0 kts 88°
2026-05-01 12:33 31.87485 131.44026 30 ft 0 kts 82°
2026-05-01 12:33 31.87483 131.44014 30 ft 0 kts 85°
2026-05-01 12:35 31.87484 131.44016 30 ft 1 kts 85°
2026-05-01 12:35 31.87488 131.44078 30 ft 16 kts 85°
2026-05-01 12:35 31.87501 131.44247 30 ft 23 kts 84°
2026-05-01 12:35 31.87516 131.44453 29 ft 27 kts 85°
2026-05-01 12:36 31.87532 131.44673 29 ft 26 kts 85°
2026-05-01 12:36 31.87546 131.44888 29 ft 26 kts 85°
2026-05-01 12:36 31.87563 131.45123 29 ft 30 kts 85°
2026-05-01 12:36 31.87583 131.45380 29 ft 31 kts 85°
2026-05-01 12:37 31.87599 131.45628 29 ft 29 kts 84°
2026-05-01 12:37 31.87617 131.45865 29 ft 28 kts 85°
2026-05-01 12:37 31.87633 131.46086 29 ft 15 kts 84°
2026-05-01 12:37 31.87634 131.46101 29 ft 0 kts 84°
2026-05-01 12:40 31.87634 131.46104 29 ft 0 kts 83°
2026-05-01 12:41 31.87639 131.46124 29 ft 6 kts 66°
2026-05-01 12:41 31.87674 131.46158 29 ft 6 kts 14°
2026-05-01 12:41 31.87690 131.46159 29 ft 0 kts
2026-05-01 12:43 31.87696 131.46159 29 ft 3 kts 359°
2026-05-01 12:43 31.87763 131.46153 29 ft 10 kts 353°
2026-05-01 12:43 31.87800 131.46107 29 ft 0 kts 266°
2026-05-01 12:44 31.87800 131.46106 29 ft 0 kts 263°
2026-05-01 12:44 31.87766 131.45651 29 ft 87 kts 265°
2026-05-01 12:45 31.87595 131.43524 733 ft 139 kts 267°
2026-05-01 12:45 31.87529 131.42340 1142 ft 159 kts 269°
2026-05-01 12:45 31.87445 131.40991 1701 ft 170 kts 268°
2026-05-01 12:46 31.87336 131.39545 2137 ft 186 kts 269°
2026-05-01 12:46 31.87231 131.38002 2690 ft 193 kts 277°
2026-05-01 12:46 31.87588 131.36557 3327 ft 194 kts 302°
2026-05-01 12:46 31.88581 131.35414 3811 ft 207 kts 326°
2026-05-01 12:47 31.89916 131.34641 4354 ft 220 kts 341°
2026-05-01 12:47 31.91430 131.34384 5143 ft 224 kts 354°
2026-05-01 12:47 31.92975 131.34474 5935 ft 228 kts
2026-05-01 12:47 31.94472 131.35146 6776 ft 233 kts 23°
2026-05-01 12:48 31.95773 131.36336 7378 ft 251 kts 41°
2026-05-01 12:48 31.96649 131.38207 7991 ft 273 kts 69°
2026-05-01 12:48 31.96899 131.40460 8618 ft 286 kts 84°
2026-05-01 12:48 31.96509 131.42795 9266 ft 299 kts 111°
2026-05-01 12:49 31.95338 131.44817 9876 ft 306 kts 135°
2026-05-01 12:49 31.93675 131.46359 10433 ft 312 kts 146°
2026-05-01 12:49 31.92093 131.48219 10771 ft 330 kts 121°
2026-05-01 12:49 31.91328 131.50772 11172 ft 339 kts 92°
2026-05-01 12:50 31.91370 131.53586 11474 ft 351 kts 79°
2026-05-01 12:50 31.91701 131.56505 11796 ft 368 kts 78°
2026-05-01 12:50 31.91990 131.59535 12082 ft 387 kts 81°
2026-05-01 12:50 31.92162 131.62779 12464 ft 402 kts 84°
2026-05-01 12:51 31.92237 131.66081 12979 ft 410 kts 86°
2026-05-01 12:51 31.92262 131.69466 13607 ft 416 kts 87°
2026-05-01 12:51 31.92279 131.76271 14936 ft 423 kts 86°
2026-05-01 12:52 31.92291 131.79782 15516 ft 429 kts 86°
2026-05-01 12:52 31.92325 131.86852 16644 ft 441 kts 86°
2026-05-01 12:52 31.92347 131.90460 17222 ft 445 kts 86°
2026-05-01 12:53 31.92392 131.97781 18372 ft 453 kts 85°